Theta_e
305 305 305 305 305 305 305 305 305 304 305 305 305 305 304 304 305 304 304 304 305 307 309 310 310 309 310 311 313 315 317 316 315 313 313 313 312 312 312 313 314 315 316 317 317 317 317 316 316 317 316 316 317 318 320 322 323 324 322 322 326 328 323 316 314 318 321 325 328 328 326 326 322 322 324 322 320 318 316 326 332 321 313 316 316 312 325
305 305 305 305 306 305 305 305 304 304 305 305 305 304 304 304 304 304 304 305 305 308 310 310 310 310 310 310 311 312 313 314 315 314 313 312 312 312 312 312 313 314 314 316 317 316 317 317 317 317 317 317 317 317 321 320 320 322 323 323 324 322 320 319 315 314 317 319 320 321 322 323 321 322 324 322 323 321 319 326 328 319 315 316 312 310 323
305 305 306 306 305 305 305 305 304 304 305 305 305 305 304 304 304 304 304 304 305 307 308 309 308 309 309 309 309 309 310 311 311 311 311 311 312 313 313 313 314 314 315 315 316 317 318 320 320 319 319 319 319 319 320 319 318 323 333 337 326 320 323 322 315 313 314 314 316 321 322 321 321 323 322 322 324 320 317 317 314 314 320 320 316 317 331
306 306 306 306 306 306 305 305 304 304 305 305 305 305 304 304 304 305 304 305 305 305 306 307 307 307 307 309 309 308 309 309 308 309 310 311 312 312 313 314 314 315 315 315 316 316 318 319 319 319 318 318 318 317 318 318 319 328 338 337 329 322 325 323 318 316 315 316 326 339 333 319 316 319 320 321 324 321 320 315 311 320 325 318 325 334 331
306 306 306 306 306 306 305 305 304 304 305 305 305 305 305 304 304 305 305 306 305 305 306 306 306 307 307 308 309 309 309 309 308 309 310 310 312 312 312 313 314 314 314 314 315 315 316 317 318 317 316 316 317 316 317 319 322 330 331 327 328 326 321 322 324 320 319 325 334 338 331 320 316 319 318 320 324 321 319 313 315 330 322 309 331 352 327
306 307 307 306 306 306 306 305 304 304 304 304 305 304 305 305 304 304 305 306 306 306 306 306 307 307 307 308 309 309 309 308 308 309 309 310 310 311 312 312 313 314 313 314 315 315 316 317 317 316 315 315 316 317 318 319 321 325 322 320 326 326 319 320 323 321 323 326 327 328 329 326 322 321 319 319 322 320 316 316 321 331 318 310 337 358 334
306 307 307 306 306 306 305 305 305 305 304 304 305 304 304 304 304 304 305 305 305 305 305 306 306 306 307 308 309 308 308 309 308 308 309 309 309 310 312 312 311 312 312 313 315 315 316 316 315 314 314 314 315 317 318 319 319 320 319 320 323 325 327 330 322 319 322 324 325 327 328 327 323 322 323 321 322 321 318 320 324 326 322 322 339 353 346
306 306 306 306 306 305 305 305 305 305 304 304 304 304 304 304 304 304 305 305 305 305 305 305 305 306 307 308 308 308 308 308 308 308 308 309 310 310 311 311 310 310 311 313 314 313 314 315 313 313 313 313 315 316 317 318 318 317 319 321 323 324 331 338 327 318 318 322 326 326 325 326 323 322 325 322 321 322 320 321 324 323 324 328 332 336 340
305 306 306 306 306 305 305 305 305 305 304 304 304 304 304 304 304 304 304 305 305 305 305 305 305 306 307 307 308 307 308 308 307 308 308 308 310 310 309 310 309 309 310 311 312 311 312 313 312 312 312 312 313 315 315 316 316 318 319 321 323 324 328 334 326 316 315 319 323 323 322 324 319 319 325 324 320 321 319 322 327 325 327 331 327 324 330
305 305 306 306 305 306 305 305 305 305 304 304 304 304 304 304 304 304 304 305 305 305 305 305 306 306 307 307 308 307 307 307 307 309 309 308 309 309 309 310 310 310 310 311 311 311 311 311 311 311 312 312 313 314 314 315 316 318 320 320 323 325 325 327 324 318 317 319 321 321 319 318 314 316 323 325 326 325 322 324 327 325 329 329 322 324 337
305 305 305 305 305 306 305 305 305 305 304 304 304 304 304 304 304 304 304 305 305 305 305 305 306 306 306 307 307 306 306 307 308 309 309 309 309 309 309 310 311 311 311 310 311 311 311 311 311 311 313 313 314 314 314 316 317 318 320 321 323 325 326 325 324 321 321 322 322 321 316 313 317 324 328 329 330 329 327 328 331 332 334 330 326 333 344
305 305 305 305 306 306 305 305 305 305 304 304 304 304 304 304 304 304 304 305 305 304 305 305 305 305 305 305 306 306 306 307 307 308 309 309 309 308 309 310 312 313 312 311 311 311 311 311 311 313 314 314 315 316 316 317 320 321 322 322 323 326 327 325 325 326 326 326 322 318 317 322 333 336 331 330 329 332 340 347 353 355 351 344 341 345 350
306 306 305 305 305 305 305 304 305 305 305 304 304 304 304 304 304 304 304 305 304 304 305 305 304 304 305 305 306 306 306 306 306 307 308 308 308 307 308 310 312 314 313 311 312 312 313 314 315 315 316 316 317 318 318 318 320 320 321 321 322 325 325 325 326 328 328 324 319 319 327 341 349 342 335 336 333 336 349 355 357 359 358 356 352 351 355
306 305 305 305 305 305 305 304 304 305 305 305 305 304 304 304 304 304 304 304 305 305 305 305 305 304 305 305 306 306 306 306 307 308 308 308 307 307 309 311 312 313 312 312 316 318 317 318 320 318 317 318 318 319 320 320 320 321 321 320 320 323 325 324 324 327 329 324 320 323 328 333 340 342 343 344 338 335 350 354 352 354 356 356 356 359 363
305 305 305 305 305 305 305 304 304 305 305 305 304 304 304 304 304 304 304 304 305 305 304 305 305 305 305 305 305 306 306 307 308 308 308 307 307 307 308 310 312 313 312 314 321 325 321 320 322 321 320 321 322 324 326 325 325 325 325 325 323 320 324 326 324 327 332 327 322 323 321 324 337 347 345 345 343 342 353 358 353 354 357 355 357 363 367
305 305 305 304 305 305 305 304 305 305 305 304 304 304 304 304 304 304 304 304 305 305 304 305 304 304 305 305 305 306 307 308 308 309 308 308 308 308 308 308 310 313 313 315 322 327 323 321 323 325 324 323 326 329 330 328 329 329 327 330 330 324 326 329 326 325 327 325 323 323 322 331 352 357 342 338 343 347 355 357 352 356 358 354 355 358 360
305 305 305 304 304 305 305 305 305 305 305 305 304 304 304 304 304 305 304 304 304 304 304 303 304 304 305 305 306 307 307 308 309 309 309 309 309 308 308 307 309 313 315 316 320 324 322 320 322 325 324 321 323 329 330 329 332 333 330 333 335 334 337 334 325 323 325 324 325 325 327 342 362 356 339 339 346 345 346 346 348 357 356 352 351 352 354
304 304 305 305 304 305 305 305 305 305 305 305 304 304 304 304 304 304 304 304 305 305 304 303 304 305 305 306 306 306 307 308 309 309 310 310 310 309 308 308 308 312 315 317 318 320 320 320 321 323 324 321 320 327 331 331 333 334 334 336 338 339 342 338 328 327 327 325 323 323 330 350 362 350 341 343 341 335 333 339 352 358 354 352 353 352 353
304 304 305 305 304 305 305 305 305 305 305 305 304 304 304 304 304 304 304 304 305 305 304 303 304 304 304 305 305 305 306 307 308 309 310 311 310 308 307 309 310 310 313 317 318 318 319 320 321 324 327 327 326 330 332 332 333 335 337 340 341 340 343 342 338 336 335 333 330 327 332 347 350 343 345 348 340 332 335 345 356 356 354 358 357 355 355
305 304 305 304 304 304 305 305 305 305 305 305 305 304 304 304 304 304 304 304 305 305 304 304 304 304 304 304 305 305 306 307 308 310 310 311 312 309 308 312 313 311 312 317 318 318 318 320 321 324 327 330 331 332 333 332 333 334 337 341 343 341 343 345 343 341 343 344 338 330 333 341 341 339 349 358 351 344 347 353 355 353 355 357 355 354 355
305 305 305 305 304 305 304 304 305 305 305 305 305 304 304 304 304 304 304 304 304 305 304 304 304 304 304 304 304 305 306 306 306 307 308 310 313 312 311 311 311 310 314 317 317 317 317 318 320 323 326 330 332 332 332 332 332 333 336 340 342 341 344 345 343 342 346 348 344 338 337 339 340 343 350 354 351 349 351 353 353 353 352 352 352 353 351
305 305 305 305 305 305 305 305 305 305 305 305 305 305 304 304 304 304 304 304 304 305 305 304 304 304 304 304 304 304 305 304 305 305 305 306 308 310 310 310 309 311 316 317 316 316 315 314 317 321 324 328 331 331 331 333 333 334 336 340 341 340 341 341 341 341 343 344 344 342 339 338 341 345 349 348 347 348 348 349 351 350 349 349 350 350 348
305 305 305 305 305 305 305 305 305 305 305 305 305 305 304 304 304 304 304 305 305 305 305 304 305 305 305 305 305 305 306 305 305 306 305 305 306 307 307 308 308 312 318 319 318 316 314 312 315 320 323 326 329 329 331 333 334 335 337 340 341 338 336 339 342 342 342 342 340 338 339 339 340 342 344 343 343 344 343 343 345 344 344 344 344 344 345
304 304 304 304 304 305 305 305 305 305 305 305 305 305 305 304 304 304 305 305 305 305 305 304 305 306 306 306 306 306 306 307 307 307 306 306 306 307 307 308 309 312 317 320 319 317 316 315 317 320 322 324 325 327 330 331 332 333 336 340 340 338 337 340 343 342 342 344 342 338 339 341 339 339 340 339 338 338 338 339 340 339 338 338 338 339 339
304 304 304 304 304 304 304 305 305 305 305 305 305 305 304 304 304 304 305 306 305 306 306 305 305 305 305 305 306 306 306 306 307 307 307 307 307 307 307 309 309 312 316 319 319 318 317 316 316 319 320 322 324 326 328 330 329 331 335 339 339 338 338 341 343 342 342 343 341 338 339 340 338 337 337 336 335 335 333 334 334 333 333 333 333 333 334
303 304 304 304 304 304 304 304 304 304 304 304 304 304 304 303 303 304 305 305 305 306 307 306 305 305 305 306 306 305 306 306 306 306 307 307 307 307 307 308 308 309 314 318 318 318 317 317 317 319 320 322 324 325 326 328 329 330 334 336 336 337 339 340 342 343 343 341 339 338 341 341 339 338 336 334 333 332 331 330 330 330 330 330 330 330 330
304 304 304 305 305 305 304 304 304 304 304 304 304 304 304 303 303 304 305 306 306 306 307 307 305 305 305 305 305 305 306 306 307 307 307 307 307 307 307 308 308 309 312 314 316 316 317 317 319 320 320 322 324 325 326 328 330 331 333 334 336 339 340 339 341 345 345 341 338 339 342 342 339 337 336 333 331 330 329 329 328 328 328 328 328 328 327
304 305 305 305 305 305 305 305 304 304 304 304 304 304 303 303 303 304 305 305 306 307 307 307 306 305 305 305 305 306 306 306 307 308 308 307 307 307 307 307 307 308 310 312 315 317 318 319 320 321 322 323 323 325 328 330 330 331 333 334 335 337 337 337 340 344 342 338 337 339 340 339 337 335 334 334 332 328 327 326 326 325 326 326 326 327 327
305 305 305 305 305 305 305 305 305 305 304 304 304 304 303 304 305 306 306 306 306 306 307 306 306 305 306 306 305 306 307 307 308 308 308 308 307 306 307 307 307 309 310 311 314 316 319 321 322 322 323 323 323 325 328 329 330 331 332 332 333 334 333 334 337 339 339 337 336 337 338 337 336 334 335 336 335 330 328 327 326 324 323 324 325 326 326
305 306 306 305 305 305 305 305 305 305 304 305 304 304 305 307 306 306 306 307 306 306 306 306 306 305 305 305 305 306 307 308 309 310 309 308 308 307 307 307 308 309 310 312 314 316 317 321 323 324 322 321 322 326 328 328 329 330 330 331 332 331 331 332 334 336 338 338 336 336 336 336 335 334 335 336 336 333 332 330 328 326 324 324 325 326 326
305 306 306 305 305 305 305 305 305 305 305 305 305 305 307 309 308 306 306 306 306 305 305 306 306 306 306 306 307 308 308 309 310 311 310 309 309 309 308 307 309 311 312 314 316 316 317 320 323 325 324 322 323 326 328 327 328 330 330 330 330 330 330 330 332 334 337 337 336 335 335 334 335 335 335 334 333 332 332 331 329 328 327 326 325 326 327
306 306 306 306 306 305 305 305 306 305 305 305 305 305 306 307 306 305 306 306 305 304 305 306 306 307 308 308 308 308 309 311 311 311 312 312 311 309 309 309 311 313 315 316 318 318 319 320 320 322 324 323 323 326 328 328 329 330 329 329 329 329 328 329 330 332 334 336 335 335 334 334 334 335 335 333 330 329 329 328 327 327 326 326 326 326 326
306 306 307 307 307 306 305 305 305 305 305 306 305 305 306 306 306 305 306 305 305 304 305 307 308 308 308 309 309 309 311 313 314 314 316 315 311 308 308 310 314 319 319 317 318 319 320 319 319 321 324 324 323 326 328 328 329 329 328 328 329 329 328 328 329 330 330 332 334 335 335 334 333 333 333 333 330 327 326 325 324 323 324 325 327 327 327
307 308 308 308 307 306 306 306 306 306 306 306 306 307 307 307 308 307 306 305 305 306 307 308 309 309 309 309 311 312 312 314 316 318 319 317 313 313 315 314 315 321 321 317 316 318 319 319 321 324 325 324 324 327 329 328 328 328 328 328 329 330 329 327 327 327 328 329 332 333 333 333 332 332 334 333 330 328 326 324 323 323 324 326 327 328 330
308 309 310 310 310 309 308 308 307 307 307 307 308 309 309 309 309 308 307 306 307 309 309 309 309 310 310 310 312 312 312 314 317 320 321 319 316 319 322 319 317 320 322 319 316 316 317 320 323 326 326 325 325 328 330 329 327 327 328 328 328 328 328 326 325 326 327 328 329 330 330 330 331 331 332 332 331 330 329 327 326 325 324 325 326 327 329
309 309 311 312 311 311 310 310 309 309 309 309 309 309 310 310 309 308 307 306 308 310 310 310 310 311 311 311 312 311 312 315 317 320 322 321 319 321 322 321 321 322 321 318 317 318 319 321 324 325 325 326 327 328 329 328 327 327 327 327 327 326 325 324 325 326 327 328 328 328 328 329 329 330 330 331 331 329 328 328 328 327 326 326 326 326 328
309 310 311 312 313 312 312 311 311 311 311 311 310 310 309 309 308 308 307 307 308 308 309 310 311 311 312 312 312 312 313 315 317 319 321 320 319 320 321 320 321 322 320 318 319 320 321 323 325 325 325 326 326 326 326 326 326 326 326 326 327 326 326 327 328 328 329 329 328 328 328 328 328 328 329 329 329 328 328 327 327 328 328 328 327 327 328
310 310 312 312 313 314 314 313 311 311 312 311 310 310 310 309 309 310 310 310 310 310 309 310 311 312 312 312 312 312 314 316 318 320 321 319 318 320 321 320 320 320 321 322 323 323 323 324 324 325 326 326 326 325 325 325 325 325 326 327 327 328 328 329 330 330 331 330 329 328 329 329 328 328 328 328 328 328 327 327 326 326 327 328 328 329 330
310 310 311 312 313 314 313 311 309 310 311 311 311 312 312 312 312 313 312 311 311 311 311 311 311 312 313 313 313 314 314 316 318 320 320 320 320 319 319 319 318 318 321 323 323 323 324 323 322 323 325 327 327 326 326 325 325 325 326 327 328 328 328 329 329 330 331 332 330 329 329 329 329 328 328 327 327 327 327 327 326 326 327 327 328 328 329
309 309 310 311 312 311 310 308 309 310 311 312 312 312 313 313 313 314 314 313 312 312 312 313 313 314 314 314 315 315 316 317 319 320 319 321 322 320 319 319 321 321 322 323 323 324 323 320 318 319 323 326 327 327 326 326 325 325 326 326 327 328 328 327 327 328 329 329 329 328 327 328 328 327 327 326 326 326 326 326 326 326 327 327 328 327 327
309 308 309 309 309 309 308 309 310 312 313 314 314 314 314 315 315 315 314 314 315 315 315 315 316 317 317 316 316 317 318 319 320 320 319 321 322 322 321 322 323 323 323 324 324 325 322 318 316 318 322 325 326 326 326 326 325 325 326 326 326 327 327 327 326 327 327 327 327 326 325 326 326 326 325 325 325 326 326 326 326 327 327 327 327 326 326
309 309 308 308 308 309 310 311 312 313 314 315 315 315 315 316 317 317 316 316 317 317 317 317 318 319 318 317 317 318 319 320 319 319 320 321 322 321 323 324 323 322 323 325 325 323 320 318 318 321 323 324 324 324 324 324 325 326 326 326 326 326 326 325 325 325 325 325 325 325 324 325 325 325 325 325 325 326 326 326 327 327 326 325 325 325 325
311 310 309 309 310 310 312 313 313 314 314 314 314 315 317 317 318 319 318 318 318 318 318 319 320 320 319 318 318 319 319 319 320 320 322 322 321 321 324 326 324 322 323 325 324 321 319 318 320 323 323 323 324 323 323 323 325 326 326 326 327 327 324 323 323 323 323 323 324 324 324 324 324 324 324 324 325 326 326 325 325 325 324 324 325 325 325
313 313 311 311 312 313 314 315 315 315 315 314 314 315 317 318 318 318 318 318 319 319 320 320 320 321 320 320 321 321 320 320 321 322 322 322 322 323 324 325 325 323 323 323 321 318 317 317 320 323 323 322 323 323 323 323 325 326 326 325 325 323 322 322 323 322 322 323 323 323 323 323 324 324 324 323 324 325 325 325 324 324 324 324 325 325 325
317 317 314 314 316 316 316 316 315 315 316 316 315 315 317 318 317 317 317 316 317 318 320 320 321 321 322 322 322 322 322 322 323 323 322 322 324 324 324 325 325 323 320 320 319 318 317 318 321 323 323 322 322 323 324 324 325 325 324 324 323 322 322 323 323 323 323 323 322 322 322 322 322 323 323 323 323 324 324 324 323 322 322 322 322 324 325
319 318 314 314 317 317 316 317 317 316 317 318 317 316 317 318 317 317 317 316 316 317 318 319 322 323 323 323 323 322 322 323 323 323 322 323 324 324 323 324 324 321 319 320 321 320 319 320 322 323 323 322 322 323 323 324 324 323 323 323 323 322 323 324 323 323 323 322 321 321 321 320 319 320 320 320 321 322 322 321 320 319 320 320 320 321 324
321 317 314 316 318 318 318 321 321 319 318 318 317 318 318 318 318 318 318 317 318 319 319 320 323 324 323 323 323 323 324 324 324 324 324 325 325 324 323 323 323 322 322 323 324 323 322 323 323 323 323 323 323 323 323 323 323 322 322 322 322 321 322 322 323 323 322 321 322 323 322 319 318 318 318 319 319 319 319 319 319 318 319 319 318 319 321
323 318 316 318 320 319 320 323 322 319 318 318 317 318 318 317 319 322 322 319 319 321 321 322 324 325 325 325 325 325 325 324 324 324 325 324 323 323 323 323 322 323 324 324 325 324 324 323 323 323 323 324 324 324 324 323 322 322 322 322 322 322 322 323 323 324 323 322 323 323 321 319 317 318 319 319 319 318 318 319 319 318 318 319 318 319 319
319 316 315 318 320 321 323 326 323 320 320 320 319 319 319 320 322 324 324 322 322 323 323 323 323 324 324 324 324 324 324 323 321 321 321 323 323 323 323 323 323 323 324 324 324 324 323 322 322 323 323 324 324 324 324 323 323 322 322 322 323 323 323 324 323 322 321 321 321 321 319 318 317 318 318 319 319 318 318 318 319 319 319 319 319 319 319
313 312 314 318 321 321 322 323 321 318 317 318 320 321 322 324 325 325 324 324 325 325 323 322 322 322 321 321 322 323 323 322 320 320 321 323 324 323 323 323 324 324 324 323 323 322 322 323 323 323 323 323 323 323 323 323 323 323 323 323 323 323 322 322 321 320 319 320 320 320 319 318 318 318 318 319 319 318 318 318 318 319 319 319 318 318 318
313 313 316 319 321 320 320 320 320 319 318 318 320 320 321 322 323 323 324 326 326 324 322 322 323 323 322 321 322 322 322 321 321 322 322 323 323 322 323 324 324 323 323 322 322 322 322 323 323 323 323 323 323 323 323 323 323 324 323 322 321 321 321 320 319 319 319 319 319 319 319 318 318 318 318 318 317 317 318 318 317 317 318 318 317 317 316
314 315 318 320 319 319 319 320 320 320 319 320 321 320 320 321 321 322 323 323 322 320 320 321 323 324 323 322 322 321 320 320 320 322 322 321 321 322 323 323 322 321 322 322 322 321 322 322 322 322 322 322 323 323 324 324 325 325 323 321 319 319 319 319 319 319 319 319 319 319 318 318 317 318 317 317 318 319 319 318 316 316 317 317 315 314 314
Wind_Speed
27 28 28 28 27 27 26 24 23 23 22 20 18 13 5 2 8 21 29 28 19 7 2 4 2 2 6 8 9 9 8 9 8 8 9 8 7 7 8 9 10 9 9 10 10 9 9 10 11 11 10 12 12 8 11 9 8 13 11 13 12 8 6 6 7 7 8 9 7 6 11 15 13 11 11 9 8 6 6 5 4 3 4 4 4 6 7
28 28 29 28 27 26 24 24 23 21 18 16 14 8 4 4 7 14 20 21 13 3 1 4 5 6 9 9 10 10 8 8 9 9 8 6 5 7 7 8 9 8 8 9 8 8 8 8 9 10 9 9 12 8 16 18 7 6 6 10 10 7 7 7 6 6 8 9 7 6 8 11 9 9 12 13 12 9 5 3 4 3 5 6 5 7 7
28 28 27 26 25 25 23 22 21 19 16 14 10 4 3 5 4 5 11 16 9 1 1 5 6 9 12 11 11 11 9 9 9 9 8 7 6 6 6 7 8 7 7 8 7 7 6 4 6 10 8 9 11 12 18 17 10 11 11 5 10 10 8 8 8 10 11 9 8 8 7 6 6 7 13 17 16 14 8 4 5 6 5 6 5 5 6
28 27 26 25 24 23 22 21 19 18 15 12 9 5 2 4 4 4 6 7 3 2 4 5 5 9 12 10 9 11 11 10 11 10 7 5 6 7 7 8 7 6 8 8 7 7 9 7 6 8 9 7 7 12 17 14 11 17 20 12 3 8 9 12 14 13 12 9 7 5 6 7 8 8 13 16 18 17 11 5 6 6 4 5 6 6 4
28 26 25 23 22 21 21 20 18 16 14 11 8 4 2 2 3 4 5 4 3 4 4 5 6 8 9 7 7 10 12 10 10 8 5 6 8 7 6 7 7 8 9 8 6 8 11 10 7 6 9 9 10 14 13 8 12 17 16 13 6 4 8 15 19 16 15 13 9 7 7 10 13 11 13 17 18 17 14 10 8 7 6 8 7 7 6
27 25 23 22 20 19 18 18 16 14 13 11 6 2 2 2 2 4 5 4 4 6 7 9 10 9 8 6 7 10 11 9 8 8 8 10 10 7 5 6 8 12 11 7 6 8 8 8 6 7 9 11 14 15 8 4 13 17 13 11 7 3 8 13 19 19 17 16 15 14 8 8 12 14 14 16 18 18 17 14 10 10 8 8 6 8 9
26 24 22 20 19 18 17 16 15 13 12 10 5 2 3 3 3 4 3 2 4 7 10 12 12 10 8 5 6 8 10 10 9 7 8 10 9 8 7 7 10 12 11 7 5 6 7 6 5 6 9 12 12 11 8 4 9 15 14 12 5 2 7 9 16 18 18 17 18 18 12 7 9 13 14 15 18 20 20 16 12 12 10 8 9 11 10
25 23 20 19 18 17 16 15 13 12 10 8 4 4 3 2 2 3 3 3 5 7 8 9 9 9 7 5 6 6 8 10 10 8 7 9 8 6 9 11 11 10 8 6 6 7 7 7 7 8 10 10 7 6 6 8 11 13 11 9 5 3 6 8 9 13 16 18 19 19 17 11 8 10 12 14 17 18 18 15 10 9 7 6 9 11 9
25 22 20 18 17 16 16 15 13 11 9 6 4 4 6 4 3 2 2 4 5 5 5 6 6 6 4 4 6 7 7 9 10 9 7 9 10 9 11 13 11 8 8 8 9 10 8 9 10 9 10 9 7 6 6 10 14 13 9 8 6 3 5 7 4 8 12 16 19 21 20 13 10 11 11 11 13 14 13 12 9 8 7 7 8 8 7
24 22 20 19 18 16 15 14 13 11 8 7 4 3 4 4 2 2 2 4 4 4 5 5 5 4 3 4 6 8 11 10 8 7 5 6 10 14 15 12 8 7 9 11 12 12 9 9 11 10 11 11 11 11 11 14 15 11 8 8 6 4 4 6 4 5 9 13 18 19 16 12 11 11 11 9 9 8 7 8 10 11 10 9 8 8 8
24 22 21 20 18 16 15 14 12 11 9 8 7 5 5 5 3 2 2 4 4 3 3 4 4 5 8 8 7 9 13 12 7 3 4 8 12 14 15 13 7 5 7 10 13 11 9 11 12 12 13 15 15 15 16 19 18 13 9 7 6 6 5 4 4 5 6 12 14 12 11 11 9 6 12 12 10 9 6 3 6 8 6 5 5 6 9
23 22 21 20 18 17 16 14 12 11 9 9 9 10 10 8 5 2 2 4 5 4 3 5 6 9 13 13 11 12 13 12 9 7 7 10 12 13 13 11 6 4 6 12 14 10 9 11 12 13 15 16 16 16 18 21 19 14 12 11 10 8 6 4 3 4 5 7 12 10 11 10 6 4 10 13 12 13 9 5 5 6 6 2 0 1 5
22 21 21 20 19 18 17 14 12 10 8 7 9 12 12 8 4 3 2 3 5 4 4 7 9 11 14 14 11 12 13 12 12 11 9 9 11 12 10 8 7 6 7 14 14 9 7 9 9 10 12 11 11 13 18 21 20 17 15 14 12 9 6 5 3 3 5 3 9 10 9 5 4 3 2 7 10 12 11 8 7 8 7 2 3 2 4
22 22 21 21 19 19 17 15 12 10 8 6 8 11 11 8 5 2 1 3 5 5 5 7 7 9 12 12 10 10 12 12 10 9 8 8 9 11 9 8 10 9 6 10 10 4 3 5 5 4 4 5 7 8 11 14 15 14 14 13 13 9 5 4 3 3 3 3 4 4 3 2 4 3 0 3 7 10 11 7 4 7 7 3 3 4 4
23 23 22 21 20 19 17 15 11 9 7 7 8 9 10 11 9 5 2 2 5 6 5 6 6 8 10 11 10 10 9 8 7 7 8 6 7 9 9 7 9 8 5 6 5 2 2 3 3 2 2 2 4 3 3 6 7 8 11 11 10 11 9 5 3 3 2 2 3 3 5 4 4 4 4 1 5 11 13 9 2 6 7 5 2 6 6
23 24 23 22 20 18 17 14 11 9 8 8 9 10 11 11 10 9 6 2 4 4 3 4 6 8 8 9 10 9 6 5 6 6 7 6 6 9 10 10 10 7 3 3 3 2 2 2 3 3 2 0 1 1 2 4 5 7 10 12 7 5 8 6 4 4 4 2 4 3 4 5 6 5 2 2 8 11 12 9 1 5 6 6 2 6 7
24 24 23 22 20 18 16 14 12 10 9 9 9 11 13 11 9 10 6 3 4 5 4 6 7 6 5 5 6 6 4 4 4 3 4 6 7 8 10 11 12 6 0 1 2 2 2 3 3 3 2 1 1 1 2 4 5 7 11 13 10 4 1 2 3 6 6 4 3 2 2 3 5 6 5 5 8 9 10 5 4 4 4 5 3 7 6
24 23 22 21 20 18 16 14 12 11 10 10 10 13 15 13 9 10 6 3 4 4 4 8 8 5 4 5 6 6 5 5 4 2 3 5 5 6 8 9 8 4 1 1 2 2 2 3 3 2 2 2 2 1 2 3 2 5 8 7 5 4 3 3 3 4 7 6 4 2 1 2 3 4 4 5 7 6 5 5 6 3 1 2 5 8 5
23 22 21 20 20 18 16 15 14 13 11 11 11 12 14 12 9 10 7 3 4 5 4 6 8 8 8 8 7 7 6 6 5 3 4 4 3 5 8 7 5 4 2 1 2 2 2 3 3 2 1 2 1 1 1 2 1 3 5 4 4 4 4 4 5 4 4 3 3 2 1 1 2 3 2 3 4 4 5 3 3 5 5 4 6 7 6
22 22 21 21 21 18 17 17 15 14 13 12 11 12 16 14 11 11 10 5 4 7 8 10 13 14 11 9 8 7 6 6 5 3 3 4 3 6 6 4 3 4 3 2 1 2 2 2 2 2 2 2 2 1 1 1 1 2 4 3 3 4 3 3 3 5 4 2 2 4 2 4 10 9 5 3 3 6 7 6 6 6 6 7 7 7 6
22 21 20 21 20 19 18 17 16 14 13 12 11 12 15 15 12 11 12 9 5 5 5 8 12 15 14 13 14 14 10 9 9 6 5 4 2 2 3 4 4 3 2 2 2 2 2 3 3 2 2 2 1 1 1 1 1 2 3 2 2 3 2 1 2 3 3 3 3 3 3 11 14 7 1 3 4 7 10 10 7 5 6 6 6 6 6
21 21 20 21 20 19 18 17 16 15 13 12 11 10 13 16 14 12 11 10 9 9 12 16 20 24 27 28 29 27 24 23 23 17 9 5 4 3 4 7 7 4 1 1 2 1 2 3 3 3 3 2 1 0 1 1 1 2 3 2 1 1 1 2 3 2 3 2 3 5 8 11 10 4 7 9 10 10 11 12 9 6 5 5 5 6 6
22 21 21 21 21 20 19 17 16 15 13 12 12 11 14 18 18 16 13 11 10 12 18 23 22 21 22 25 27 28 27 29 31 27 17 9 5 5 6 7 6 3 1 2 2 1 2 3 3 3 3 1 0 1 1 1 1 1 2 1 1 1 1 2 1 2 4 3 3 9 11 10 12 11 9 11 12 10 11 12 11 7 6 6 7 7 6
22 21 21 20 20 19 19 17 16 15 14 13 13 13 16 19 18 16 13 8 5 6 10 11 9 9 12 17 21 23 22 24 27 29 26 18 7 4 5 7 5 2 2 4 3 1 1 3 3 3 3 2 1 1 0 1 1 1 1 1 1 1 4 4 2 3 4 2 5 11 12 9 12 13 11 11 11 10 10 11 10 8 8 8 8 8 8
24 23 22 21 20 19 18 17 16 16 15 14 14 15 17 18 17 14 10 7 3 3 5 5 6 9 14 18 20 21 22 21 22 25 25 23 17 10 9 10 9 6 3 3 3 1 1 3 3 4 4 2 1 1 0 1 0 2 1 0 1 2 3 3 3 3 2 2 6 11 9 8 13 12 9 10 10 10 12 11 10 10 10 9 9 9 9
28 26 23 22 21 20 19 18 17 16 16 15 16 17 18 20 19 16 13 10 5 4 5 5 6 8 11 15 21 25 25 24 24 24 23 23 27 25 18 13 12 8 3 3 3 2 2 3 3 3 4 3 1 1 2 1 1 1 0 1 3 3 2 2 2 2 2 3 6 9 7 10 15 14 11 9 8 8 11 12 12 12 12 12 11 10 9
30 27 25 23 22 21 20 19 17 17 17 17 17 18 20 22 22 19 17 12 5 2 4 5 6 9 12 18 27 31 26 21 21 22 21 22 25 26 18 11 9 7 4 3 2 1 1 3 4 3 4 3 2 2 2 2 1 1 1 2 3 1 1 1 1 2 1 1 3 6 5 6 9 11 11 10 8 6 8 9 10 11 11 12 13 12 10
32 28 25 24 23 22 20 19 18 18 17 17 19 21 23 23 21 19 19 17 10 3 3 4 7 11 13 16 23 26 22 19 19 18 19 22 23 21 15 11 9 7 4 3 2 1 2 4 4 3 3 2 2 2 2 1 0 0 1 1 2 0 1 0 0 2 1 1 1 4 5 5 6 8 11 11 9 6 7 8 9 9 8 8 12 12 11
33 28 25 24 23 22 20 19 18 17 15 16 18 19 18 15 9 7 9 13 12 6 3 5 6 7 8 13 20 23 22 20 18 17 17 18 18 16 12 10 9 7 4 3 3 3 3 3 2 3 2 1 1 3 2 1 0 1 0 2 2 2 2 1 1 3 2 1 2 3 5 5 5 7 11 11 9 6 6 8 8 8 7 7 8 10 9
32 27 25 23 22 21 19 19 18 15 13 13 12 10 8 6 2 4 5 7 8 5 2 4 5 4 5 10 14 16 18 18 16 15 13 11 9 8 8 8 8 6 4 3 3 3 3 2 2 2 2 1 1 2 2 1 1 2 1 4 3 2 2 2 1 2 1 2 3 4 6 6 3 5 9 9 7 7 7 8 9 9 8 7 7 7 7
32 27 25 22 21 19 18 18 17 14 12 10 6 1 0 1 2 6 9 7 4 1 2 4 5 5 5 5 7 10 15 16 13 10 9 7 6 6 8 7 5 5 5 4 3 2 2 2 2 1 2 2 2 2 2 1 2 2 2 4 3 2 2 3 2 1 2 3 4 6 7 5 3 4 7 7 6 6 7 8 9 9 9 8 7 7 6
34 29 25 22 19 17 16 16 14 12 13 13 11 9 10 11 9 8 10 8 5 4 2 3 4 4 3 3 7 13 15 13 9 5 4 5 5 5 6 5 3 3 2 1 1 1 2 3 3 2 2 2 2 2 2 2 2 1 2 3 2 2 2 3 3 1 0 1 2 5 7 6 5 7 8 6 5 6 7 7 7 7 8 8 7 8 8
35 30 25 20 17 14 13 12 10 11 13 15 18 22 24 21 17 15 16 15 10 4 3 2 3 4 3 4 8 12 10 5 3 3 2 3 3 2 3 2 3 2 3 2 1 2 2 2 2 2 2 2 2 2 3 2 2 1 1 2 2 3 4 5 6 6 4 4 3 3 6 6 6 8 10 9 7 6 6 5 5 5 7 8 8 8 9
32 26 21 19 16 13 13 12 11 12 11 11 16 20 18 13 11 11 14 12 6 3 4 2 2 4 4 3 4 6 7 4 2 1 1 3 3 1 0 1 2 2 2 2 1 2 2 2 2 1 1 1 1 2 2 2 2 2 2 3 4 4 5 7 8 8 8 6 3 2 6 7 7 8 11 12 9 6 5 4 4 4 6 7 7 7 6
29 23 20 20 18 15 14 13 11 9 6 8 12 14 12 8 8 9 12 11 5 1 2 3 2 3 4 3 3 5 7 5 2 1 0 1 2 3 2 2 2 1 1 0 1 2 2 2 2 1 1 2 1 2 1 2 3 4 4 6 7 6 6 7 7 9 10 9 6 4 7 8 8 9 10 10 9 8 6 4 4 5 6 6 6 6 6
26 22 21 20 16 11 9 6 6 6 5 7 10 10 8 7 7 8 13 13 7 3 2 2 2 3 3 3 3 4 6 4 2 2 1 0 1 3 1 1 1 1 1 1 2 2 1 2 2 1 1 2 2 2 3 4 5 5 6 7 6 6 6 5 6 10 13 12 9 7 9 11 11 9 9 9 8 6 6 5 4 5 6 6 5 5 5
23 19 19 17 12 6 2 2 5 4 5 8 10 9 6 5 4 5 8 9 8 6 3 2 3 3 2 2 3 3 4 3 2 2 2 0 1 1 1 1 1 1 1 1 2 1 1 2 2 1 1 2 2 4 5 5 4 3 3 3 3 3 4 4 6 11 13 12 10 9 9 11 11 10 9 9 9 7 6 6 5 4 6 6 4 4 4
22 16 13 10 6 2 0 1 4 10 12 11 9 6 3 2 2 2 3 3 4 5 3 2 3 3 1 2 3 2 2 2 2 2 1 0 1 0 1 1 1 1 1 1 1 0 0 1 1 1 1 2 3 3 4 4 3 2 1 1 2 2 3 4 6 8 9 8 6 6 7 9 10 9 8 9 9 7 6 6 6 6 6 5 3 3 3
20 13 8 4 2 1 5 11 16 18 14 8 5 3 1 1 1 1 2 2 2 2 2 2 3 2 3 4 4 2 2 2 2 2 0 1 1 0 0 0 1 1 1 1 0 1 0 1 3 3 2 2 3 3 3 3 4 4 3 3 3 3 4 6 7 7 6 5 3 2 3 5 7 7 6 6 6 5 5 6 7 7 6 6 6 5 4
17 9 3 1 2 8 18 23 20 13 7 2 1 1 1 1 1 1 1 1 1 1 2 2 3 3 4 5 4 3 3 3 1 1 1 1 0 1 1 1 1 1 0 1 1 1 1 2 3 3 2 1 1 1 2 4 5 5 5 5 5 5 6 8 7 5 4 5 4 3 3 4 5 6 6 5 5 5 5 6 7 6 7 8 8 7 8
13 7 3 6 10 17 23 21 12 3 1 1 0 1 1 1 1 1 1 1 2 1 2 2 3 2 3 4 3 3 2 1 1 1 1 1 0 1 0 1 1 0 0 1 1 1 2 3 2 2 2 3 4 5 5 6 6 6 6 5 4 4 6 8 7 4 4 5 4 3 4 7 8 7 6 6 6 5 6 6 7 7 8 9 9 10 12
13 12 13 16 17 15 12 8 4 1 1 0 0 1 1 1 1 1 0 1 1 1 1 2 2 3 2 3 3 2 1 1 0 1 0 0 0 0 0 1 1 1 1 1 1 2 2 2 2 3 4 6 7 8 7 6 5 4 4 4 3 4 7 10 9 7 7 7 5 5 7 9 9 8 8 9 8 7 7 7 7 8 9 11 12 13 14
13 10 10 11 9 6 3 2 2 1 1 1 1 2 2 1 1 2 2 1 1 1 1 2 2 2 2 2 2 2 1 1 0 1 1 0 0 0 0 0 1 1 2 1 1 2 3 3 3 4 5 6 7 7 7 6 5 4 5 5 5 6 9 11 10 9 10 11 9 9 9 8 9 11 13 13 10 8 8 9 9 10 11 13 14 14 15
8 5 3 3 2 2 2 2 2 2 3 2 1 2 3 3 3 3 3 2 1 2 3 2 2 3 2 1 1 1 1 1 1 1 0 0 1 1 0 1 1 1 1 1 2 3 3 2 2 3 4 5 6 5 4 5 5 5 7 8 8 9 10 11 10 9 9 10 9 9 9 8 9 12 14 14 12 9 7 8 11 13 13 13 13 14 15
4 3 3 3 3 2 2 2 2 2 2 2 1 1 3 4 4 4 3 2 3 4 5 4 3 3 3 1 0 0 1 1 1 0 0 0 1 1 1 1 1 1 2 2 3 3 2 2 3 3 4 6 7 6 6 5 5 5 8 9 9 9 9 9 7 6 7 8 8 9 9 8 8 8 9 11 12 11 9 9 11 13 14 13 13 13 15
2 1 2 2 3 2 1 1 2 2 1 2 2 3 4 5 5 5 4 3 3 5 6 5 3 3 2 2 1 0 1 1 0 1 0 0 1 2 1 1 1 3 3 3 3 3 1 0 2 4 6 6 6 6 4 3 2 2 7 7 6 5 6 7 7 7 8 8 8 8 8 7 7 7 8 10 12 13 12 12 14 15 14 12 12 13 14
1 1 2 2 2 2 1 0 1 2 3 3 4 4 4 4 5 5 4 3 4 5 5 4 3 2 1 0 1 1 1 0 1 1 1 1 2 2 1 1 3 3 2 3 4 3 1 1 4 5 6 6 6 6 5 3 2 5 6 6 5 6 7 8 7 7 8 8 8 8 7 7 9 9 9 9 11 14 15 14 15 16 16 15 15 16 17
0 1 1 1 1 2 2 2 1 2 3 5 5 5 4 3 4 5 4 3 4 5 4 3 2 2 1 0 0 1 1 1 1 2 2 1 2 2 2 3 3 3 2 3 4 3 3 4 5 5 5 5 6 7 8 8 9 9 9 8 8 8 8 8 8 7 7 7 7 6 6 7 10 10 10 9 10 14 17 16 15 16 17 18 18 19 19
0 1 0 0 1 3 3 2 3 5 5 3 3 4 4 4 5 6 5 3 4 4 3 1 0 2 2 1 1 2 3 3 3 3 3 3 3 2 2 3 4 3 3 4 4 4 4 5 5 5 5 6 6 7 8 8 10 10 10 9 8 7 7 7 8 9 9 8 7 7 9 11 11 11 10 8 9 13 19 20 18 16 16 18 20 20 20
1 1 1 1 2 3 4 3 4 7 7 6 4 4 4 4 5 5 4 4 4 4 2 1 2 2 2 2 3 3 3 3 3 2 3 4 4 3 3 4 4 2 2 3 4 5 4 4 4 6 6 7 7 7 7 8 9 9 8 8 8 8 8 9 10 12 13 14 14 14 14 14 13 12 12 11 13 17 22 24 21 19 19 20 22 22 20
2 1 1 1 1 3 4 4 4 6 7 7 7 6 6 6 6 6 5 5 5 5 5 4 3 2 3 4 3 2 1 2 2 3 3 3 3 3 3 4 4 4 4 5 5 4 4 4 5 5 5 6 7 7 6 7 7 7 7 8 9 10 12 13 13 14 15 17 18 17 15 14 16 18 19 21 22 21 19 19 21 22 22 22 22 22 22
2 2 4 3 3 4 5 4 4 5 6 6 6 6 6 6 6 6 6 5 6 7 6 4 2 3 4 4 2 1 1 2 3 4 4 3 2 2 3 4 4 5 5 4 4 4 4 4 5 5 5 6 6 6 5 6 7 6 7 9 11 11 11 12 13 14 15 15 16 16 16 17 20 23 23 21 19 13 9 12 19 24 24 22 22 24 25
Wind_Direction
327 328 330 329 330 332 333 334 336 339 341 342 346 345 320 290 287 287 306 329 334 333 338 308 314 301 291 293 282 266 257 261 268 266 264 266 265 269 274 278 283 280 270 274 274 274 280 268 262 266 265 274 277 293 344 337 209 188 193 198 192 188 191 201 221 248 255 248 263 257 213 200 199 208 200 188 191 177 169 183 174 197 225 194 197 240 260
326 327 328 328 329 331 331 331 333 337 340 341 343 344 313 295 287 287 309 329 331 323 329 319 330 325 313 316 315 302 286 277 280 277 278 288 288 283 291 296 295 296 304 303 289 289 285 256 262 276 267 282 292 318 7 358 311 235 213 187 178 192 195 180 187 222 245 250 263 270 233 213 209 200 195 201 192 166 159 167 159 221 220 172 190 237 250
324 325 325 326 327 329 328 328 332 335 336 335 336 332 296 301 280 262 306 324 327 329 14 350 349 339 334 336 334 327 314 303 309 310 304 305 301 295 301 309 312 323 343 339 326 327 325 307 328 328 314 316 325 345 358 350 327 313 310 238 189 195 190 181 192 203 213 222 227 223 208 210 223 197 191 201 196 181 173 157 181 227 218 161 180 231 263
323 322 322 324 324 325 326 327 330 332 332 332 328 311 291 315 304 283 313 326 321 322 354 17 10 342 337 336 329 330 328 320 322 325 319 305 303 306 307 311 321 342 353 340 326 339 340 328 335 338 327 322 321 332 336 332 324 327 333 337 248 208 197 197 202 206 208 207 218 211 166 179 215 206 190 197 201 194 180 169 195 196 179 202 208 187 239
323 320 319 320 321 322 324 326 329 329 329 329 325 304 260 279 287 305 331 331 323 339 356 13 359 331 325 323 313 320 323 318 318 321 321 316 315 312 300 302 320 342 349 337 321 337 333 320 332 344 324 317 314 318 323 331 342 341 342 348 338 246 222 207 201 208 210 201 211 217 178 187 203 201 195 199 201 194 186 199 201 151 158 230 231 173 202
325 322 319 318 318 319 321 324 326 326 325 323 321 284 244 259 274 311 323 306 313 333 327 326 329 324 322 314 298 310 319 324 329 327 326 327 327 319 287 300 345 352 348 339 326 339 333 312 338 357 331 326 331 330 329 348 359 357 346 338 342 276 247 214 199 208 209 201 212 217 198 196 204 199 196 198 199 197 198 204 186 156 181 220 203 179 201
330 326 323 318 318 318 318 322 322 320 320 318 304 248 258 277 268 293 318 298 293 302 301 308 316 319 325 311 290 311 326 327 328 330 334 331 330 334 321 330 3 356 342 344 333 333 333 317 338 354 331 329 333 327 323 334 2 359 338 325 338 305 278 232 201 206 207 201 211 216 204 187 202 209 202 196 198 200 203 205 188 180 199 198 176 190 210
335 333 329 322 320 320 318 319 317 314 314 309 281 231 239 273 289 301 324 300 281 283 291 306 312 310 313 297 286 311 322 322 327 335 332 314 308 335 329 320 334 331 317 326 312 301 310 306 311 321 316 321 324 310 312 317 328 337 326 316 343 351 297 265 209 200 207 204 205 215 214 190 187 221 218 204 201 200 203 207 192 183 202 190 180 202 227
340 339 335 329 327 324 320 320 318 314 308 294 266 230 236 258 282 288 295 291 289 293 298 306 304 299 303 295 302 316 310 313 326 322 298 284 293 320 319 308 316 315 299 296 286 281 281 277 285 293 287 286 288 282 288 297 305 315 311 305 321 328 307 304 254 203 210 204 198 211 221 210 203 222 221 205 199 200 202 201 188 183 190 183 181 202 231
342 341 339 337 334 328 324 322 318 313 295 265 248 244 261 278 272 217 245 287 290 289 292 297 295 291 299 304 307 306 298 303 321 314 292 289 301 311 307 298 304 305 292 286 280 277 275 274 278 277 266 263 262 259 261 265 271 283 292 293 293 284 308 328 304 234 214 199 197 206 213 221 229 220 202 193 189 194 209 217 212 204 187 180 197 210 214
342 341 338 337 335 329 325 319 310 307 288 257 246 258 277 290 286 234 262 285 279 280 291 291 287 291 300 304 302 294 296 304 312 289 287 304 305 302 297 291 287 277 282 294 292 281 270 268 268 265 261 258 255 253 256 256 251 249 256 265 268 270 281 296 291 265 219 186 180 189 202 220 237 195 171 176 176 170 177 223 247 239 220 204 219 221 207
340 338 336 336 334 330 327 322 314 307 291 268 260 264 269 274 275 261 259 277 285 297 289 275 278 292 298 299 300 298 298 303 306 300 296 300 302 300 295 294 289 267 298 316 305 280 270 274 268 262 258 252 247 248 254 259 257 245 235 242 258 269 273 276 270 258 236 167 147 170 209 222 239 194 171 175 168 152 132 79 15 331 315 298 109 264 230
338 336 335 335 335 333 331 329 325 317 303 278 259 261 268 268 256 245 241 262 279 284 280 280 280 283 288 292 298 301 301 303 306 307 302 297 300 301 305 321 314 294 320 326 309 282 282 291 275 260 258 253 249 248 253 260 261 252 237 233 245 256 256 260 264 257 259 184 150 182 217 239 298 318 152 154 151 134 105 62 11 351 346 354 111 79 308
340 338 337 334 333 333 332 331 330 322 311 287 263 265 272 263 241 240 253 253 269 277 284 288 284 281 287 295 304 305 306 309 309 304 301 298 296 300 313 323 303 296 328 328 305 279 280 293 290 276 262 262 265 257 255 258 256 257 255 243 234 233 232 241 247 246 242 197 157 171 196 263 326 339 48 166 163 149 126 97 360 346 352 344 117 87 21
342 342 341 336 333 332 331 330 328 322 312 296 278 272 273 266 253 246 228 244 279 282 262 255 272 295 303 305 309 307 308 313 310 303 300 291 286 300 310 297 280 291 337 327 290 260 267 272 287 297 245 239 272 277 281 279 270 276 288 278 243 221 215 210 207 248 259 180 149 126 142 190 247 252 257 263 134 140 128 108 15 333 350 347 82 83 56
341 341 340 338 335 332 332 331 328 323 317 309 298 284 280 279 263 248 237 235 268 270 251 252 273 293 299 296 298 298 297 305 310 312 307 303 304 306 308 309 304 305 339 330 291 267 281 261 247 256 239 202 320 310 308 305 298 299 311 323 321 228 210 205 202 250 267 197 164 151 157 205 222 212 225 99 122 123 103 88 332 301 336 341 52 80 66
341 341 340 340 338 334 332 333 329 326 321 317 313 299 292 292 270 245 235 219 240 256 291 294 287 291 293 290 292 288 280 288 299 301 298 306 317 314 312 323 322 311 125 6 306 246 250 268 262 261 260 297 308 269 286 307 322 326 331 342 354 5 234 232 223 227 229 207 171 162 177 217 205 181 161 136 127 104 88 107 219 252 310 323 46 76 63
340 343 342 343 343 339 336 334 329 327 323 315 311 302 297 298 280 249 235 236 257 255 260 268 270 270 265 265 277 281 282 289 286 264 276 289 301 313 318 321 315 306 74 24 294 257 249 247 251 261 248 253 258 219 285 314 337 336 332 336 346 3 8 348 313 242 218 198 165 149 215 236 205 199 186 142 117 101 118 180 213 181 148 341 55 82 72
338 342 342 343 345 342 338 336 330 325 320 315 312 301 296 301 287 254 236 226 258 257 252 265 273 273 269 267 273 275 279 285 279 268 286 289 296 317 315 303 293 306 328 298 250 269 267 234 241 257 223 242 262 165 181 307 322 328 328 340 5 9 5 357 341 310 258 197 138 123 190 253 327 330 339 96 121 174 189 178 138 117 106 56 55 70 70
337 340 339 339 343 342 338 336 331 325 320 317 315 302 294 299 295 265 246 233 258 270 266 258 257 260 262 264 267 274 285 284 271 255 268 274 306 335 323 304 313 327 320 304 298 290 273 260 269 263 211 232 255 159 131 303 316 351 339 344 8 10 9 3 334 312 307 341 61 105 139 304 320 324 334 36 115 171 159 115 96 97 87 75 64 49 44
336 337 335 336 338 338 337 336 331 329 327 321 317 305 295 300 305 282 261 251 255 275 272 255 254 259 261 259 259 263 268 266 259 260 270 265 267 349 309 290 308 323 320 310 317 319 313 304 302 292 258 248 244 151 92 347 316 327 324 321 2 23 30 12 302 312 331 348 8 36 307 299 304 296 189 83 95 135 131 113 106 98 84 83 77 55 46
334 333 332 333 333 332 333 335 331 329 327 321 317 306 292 296 304 300 281 257 239 252 270 274 274 271 269 268 265 260 257 257 257 256 259 268 255 237 260 278 277 264 243 272 278 314 338 311 302 299 290 293 313 241 197 124 74 324 323 331 14 33 345 229 227 297 316 274 294 322 313 309 321 11 98 91 85 98 107 106 104 97 91 92 88 79 67
330 330 329 328 328 328 330 331 329 326 322 320 316 302 293 298 303 304 294 270 249 259 269 271 275 274 269 270 272 268 260 255 255 251 243 241 259 253 246 261 266 250 221 223 212 208 271 270 274 281 279 289 317 243 228 141 92 352 334 334 163 140 323 281 228 321 312 270 298 330 332 346 7 21 52 81 90 95 97 99 98 91 90 90 90 91 84
327 325 325 323 322 323 324 323 323 321 318 315 310 300 296 298 302 301 290 269 259 281 274 263 261 265 267 277 288 288 273 257 254 252 239 224 228 271 248 236 242 239 217 219 205 170 253 264 271 277 287 324 350 274 106 86 50 360 355 332 203 34 1 359 13 358 337 316 334 332 330 358 28 30 33 48 67 82 86 90 94 92 88 86 87 91 88
326 322 320 318 317 317 316 315 315 314 313 309 306 303 299 296 297 295 283 268 266 289 289 281 263 267 282 291 291 287 280 273 273 267 245 220 211 230 248 245 247 248 226 206 192 168 258 279 288 288 296 317 323 299 300 134 61 345 16 130 275 319 359 8 10 2 341 271 300 312 321 9 34 40 41 36 45 67 78 84 91 90 87 86 85 87 89
328 324 318 313 312 312 311 311 309 307 306 305 302 300 296 292 292 285 272 269 269 256 268 283 276 279 297 298 288 285 287 285 280 275 261 235 222 224 235 250 256 250 214 173 181 191 243 260 266 279 294 307 340 314 291 218 249 300 241 232 278 292 338 6 335 323 284 253 289 310 335 19 23 24 35 38 35 54 73 86 93 94 95 93 84 78 82
326 322 317 312 307 304 305 307 306 304 302 301 300 298 294 292 290 279 263 257 255 258 269 269 279 295 297 289 287 292 296 290 278 268 262 252 238 230 231 242 249 242 215 204 219 195 234 258 266 269 277 291 307 288 243 221 244 255 213 262 287 300 41 38 338 314 283 247 319 335 8 37 13 4 19 28 26 47 71 82 88 90 94 98 95 89 81
327 323 317 311 305 299 298 299 301 302 301 301 301 299 296 292 288 278 266 256 245 251 287 272 286 301 298 290 292 296 295 290 282 266 254 250 245 239 235 236 241 236 216 209 231 229 230 254 272 270 263 277 292 278 244 214 275 229 212 280 301 342 56 62 251 295 281 172 19 3 40 58 19 8 25 22 8 29 66 72 76 80 81 88 95 96 88
329 322 315 310 305 298 294 293 295 297 300 304 307 306 303 298 286 265 256 247 236 232 285 287 281 287 292 297 301 301 298 292 281 268 257 248 239 235 232 232 234 229 203 192 219 238 240 241 249 259 262 261 287 288 298 34 68 228 95 39 13 342 324 291 229 265 273 144 114 68 65 60 19 23 43 31 360 0 43 58 62 65 61 65 78 87 92
331 323 315 310 303 296 294 291 289 290 294 302 308 309 310 309 262 187 190 205 208 210 265 296 290 289 289 290 289 291 298 298 285 270 264 253 236 227 223 222 225 222 210 205 214 226 238 244 241 252 262 248 259 281 306 36 230 250 46 52 32 345 335 341 279 252 224 128 130 113 92 80 46 43 56 47 14 1 22 43 53 54 52 54 60 65 74
333 326 319 312 304 298 294 288 285 282 279 281 286 280 309 311 184 166 158 155 162 217 267 270 281 291 285 264 259 280 294 296 286 270 252 243 244 240 230 224 214 200 199 206 214 230 245 248 247 257 259 256 253 264 297 316 260 269 27 44 30 339 327 331 315 238 172 153 137 115 102 97 98 78 65 48 30 29 32 32 39 49 53 51 50 51 51
336 331 326 321 314 303 292 284 279 270 259 254 249 248 256 265 253 212 197 216 272 302 280 265 281 292 285 272 288 298 295 282 276 280 251 231 241 239 232 223 187 176 197 203 196 233 244 232 235 252 257 255 255 267 288 278 246 263 24 48 37 358 358 6 9 27 195 237 159 118 108 111 126 119 101 73 42 47 53 39 24 34 49 52 48 46 46
337 334 331 327 323 312 298 292 282 268 266 266 266 268 272 274 270 256 248 256 269 255 202 244 283 275 278 297 300 305 308 291 286 339 338 257 251 226 215 195 131 80 349 344 240 250 269 244 239 248 240 246 260 281 282 265 236 260 37 61 37 11 35 46 42 40 24 332 280 167 136 133 138 128 113 98 72 51 57 55 35 28 41 49 45 38 38
337 335 330 323 319 309 300 298 285 272 271 266 265 275 284 282 271 259 248 244 242 213 214 246 279 268 282 301 295 312 337 339 308 351 360 307 317 14 342 18 64 50 322 309 277 286 302 298 285 272 242 268 299 274 277 305 351 352 34 57 32 14 40 45 39 39 30 3 338 131 123 123 122 110 104 103 100 88 73 65 55 50 51 50 43 34 30
337 333 326 320 313 300 291 287 274 259 247 239 255 282 301 287 263 245 219 207 199 206 236 231 229 268 302 311 286 316 344 341 297 291 351 324 4 32 34 28 36 11 260 311 288 263 269 316 324 309 308 326 314 271 272 27 22 5 25 44 33 28 44 45 41 47 38 16 7 69 92 92 90 89 93 102 108 108 103 86 72 72 72 62 46 37 37
337 332 330 328 321 307 295 276 232 212 217 245 267 290 299 270 250 227 208 207 216 234 245 248 232 242 288 307 290 320 341 331 310 336 334 240 27 24 39 83 79 273 254 255 261 255 294 346 328 303 326 329 323 334 6 34 36 31 43 51 47 57 77 76 67 66 55 30 9 28 66 74 70 67 72 79 85 94 100 93 78 69 73 71 57 45 44
339 337 334 333 331 323 311 200 195 228 280 280 279 285 276 244 226 206 203 212 220 218 222 277 261 232 243 273 275 314 334 316 311 340 341 98 78 23 13 81 111 261 262 247 251 261 347 338 316 343 9 331 333 5 12 8 6 28 65 73 55 62 81 71 58 63 61 43 18 16 45 64 64 60 59 60 58 57 60 66 67 67 74 80 73 59 57
345 346 339 332 338 1 106 248 309 322 316 295 278 278 263 206 200 202 197 203 210 203 199 240 255 241 219 233 248 280 318 306 311 335 349 41 99 306 349 52 169 244 285 288 251 216 9 338 352 24 3 332 348 7 7 356 347 4 67 79 47 46 48 44 52 68 75 68 43 27 44 63 71 72 68 64 61 54 46 48 56 59 64 74 82 78 72
352 353 339 326 351 306 297 311 318 318 310 287 257 250 229 176 235 248 209 186 201 212 209 229 243 234 219 239 258 254 215 244 298 324 359 22 33 147 186 183 187 208 290 307 9 88 62 357 10 11 358 357 358 348 349 16 43 47 36 32 51 68 64 55 56 72 92 109 120 104 82 85 90 92 88 83 78 69 54 50 52 51 53 57 58 59 58
355 357 337 312 322 311 314 322 325 316 296 260 180 211 257 220 206 242 255 253 248 223 206 225 241 224 212 236 268 264 202 202 281 314 289 312 354 160 181 221 192 153 302 306 342 79 79 34 18 353 313 317 57 42 39 53 60 53 43 44 53 65 73 72 66 66 85 100 110 126 131 117 106 101 103 104 98 85 71 60 52 47 48 48 45 46 50
346 351 320 294 302 308 314 323 331 327 227 195 157 263 263 239 224 255 295 295 282 246 187 216 262 259 215 215 242 256 227 202 244 277 291 313 297 148 145 267 247 139 40 334 352 49 62 45 12 313 310 6 27 37 48 57 58 52 49 53 55 66 83 88 85 81 84 85 85 92 94 90 87 86 88 90 86 79 74 68 58 51 50 47 44 46 51
313 305 297 296 299 302 307 319 337 15 147 149 331 280 255 250 297 318 290 251 295 310 228 216 250 271 264 241 235 244 253 254 229 244 275 311 246 181 212 288 317 46 45 10 2 38 54 41 2 351 4 12 17 24 31 34 39 51 58 61 65 77 82 80 74 67 68 72 73 71 72 74 75 74 75 77 76 73 72 72 66 58 55 56 55 54 54
315 302 301 306 310 311 314 327 339 16 52 21 349 330 314 319 350 333 285 257 285 291 239 234 259 281 276 254 229 228 239 234 210 209 224 265 312 324 72 359 22 54 62 41 35 47 50 37 16 3 359 4 15 26 22 5 2 33 54 45 37 55 71 74 73 71 71 73 74 74 72 69 66 66 67 69 70 67 63 64 65 63 61 60 58 55 59
337 335 338 339 324 325 340 330 325 16 20 3 345 337 327 323 327 321 306 299 294 273 265 281 308 308 297 265 191 224 258 236 209 219 229 245 286 303 27 30 21 37 59 57 55 52 40 21 350 339 346 359 7 8 359 354 10 44 61 54 45 53 66 69 67 69 74 75 73 72 71 68 65 66 67 69 71 72 67 61 60 61 61 60 57 55 62
360 11 18 353 324 335 28 16 345 360 1 324 277 298 310 308 307 302 296 291 284 286 296 304 291 278 291 311 357 291 294 268 229 336 350 334 359 18 28 16 15 45 55 53 56 59 47 348 316 337 9 20 13 1 350 345 360 45 70 72 69 73 80 78 69 63 66 68 69 69 70 69 68 68 67 67 68 69 67 61 59 60 61 60 56 55 62
4 24 67 17 324 313 48 34 347 338 316 277 280 290 289 290 291 285 277 275 277 282 293 298 274 252 281 320 304 224 262 268 285 29 14 27 34 21 337 316 26 44 47 46 56 73 97 297 346 18 34 38 32 21 359 308 287 75 83 84 82 80 79 76 69 61 59 61 64 67 69 70 72 70 66 61 58 57 57 60 64 65 65 62 58 57 63
347 353 93 54 324 314 359 83 216 229 242 250 261 271 272 273 276 273 262 258 268 276 285 292 275 238 200 336 313 309 309 305 27 24 24 49 45 12 336 22 42 40 46 59 67 79 91 45 31 28 29 31 31 30 27 23 49 70 76 77 70 64 62 60 58 56 56 58 59 60 61 63 64 64 63 58 52 52 56 61 63 64 64 63 60 59 62
359 355 79 87 287 293 304 299 272 271 259 243 243 261 277 286 294 293 279 258 270 288 299 304 308 325 15 56 358 352 342 9 32 12 355 30 47 19 8 35 37 20 29 54 58 55 53 50 40 28 25 31 33 33 35 38 41 45 48 49 49 52 55 56 55 52 51 54 60 62 63 61 60 59 59 55 48 48 54 60 63 62 61 58 57 57 61
164 6 27 166 244 260 265 288 358 347 325 288 241 256 271 285 304 309 305 300 307 309 293 243 309 6 350 328 3 22 10 12 22 8 357 21 35 18 14 38 43 36 35 42 45 47 49 47 39 32 30 33 36 38 41 43 43 41 38 36 35 39 45 50 50 46 44 46 52 54 51 50 49 48 49 49 45 42 46 53 60 65 65 63 63 63 63
55 63 250 299 356 324 305 329 9 358 346 355 4 338 317 326 337 338 339 336 330 332 348 34 47 28 358 355 21 31 18 13 21 14 11 24 26 15 22 41 44 35 37 47 53 53 47 38 39 41 35 29 31 36 41 46 48 43 32 25 26 33 40 46 51 52 52 54 56 56 53 51 52 51 49 50 51 48 45 47 54 63 68 70 70 69 64
12 15 282 265 21 359 336 339 353 349 347 355 357 349 352 2 355 343 341 345 351 7 20 17 8 16 22 23 27 19 339 348 12 21 26 28 16 5 29 46 48 48 54 55 49 44 38 33 38 41 36 31 32 33 36 44 49 43 31 30 37 42 45 48 52 56 58 59 60 59 56 53 55 57 57 56 56 53 47 43 49 57 63 65 66 65 61
23 347 318 309 336 357 355 352 346 341 348 357 354 350 1 7 352 336 341 5 25 29 20 2 1 38 37 26 18 4 346 13 27 28 30 30 12 7 33 48 49 51 56 50 34 31 36 36 31 32 38 41 36 30 32 43 44 35 31 39 46 50 51 52 53 56 57 57 55 54 51 49 51 53 54 53 54 54 46 41 48 56 62 64 63 62 61